Regional Weather Roundup
Issued by NWS

Home | Current Version | Previous Version | Text Only | Print | Product List | Glossary On
Versions: 1 2 3 4 5 6 7 8 9 10 11 12 13 14 15 16 17 18 19 20 21 22 23 24 25 26 27 28 29 30 31 32 33 34 35 36 37 38 39 40 41 42 43 44 45 46 47 48 49 50
000
ASUS43 KMPX 201901
RWRMN
WEATHER ROUNDUP FOR MINNESOTA
NATIONAL WEATHER SERVICE TWIN CITIES/CHANHASSEN MN
200 PM CDT SUN MAY 20 2018


NOTE: "FAIR" INDICATES FEW OR NO CLOUDS BELOW 12,000 FEET WITH NO
SIGNIFICANT WEATHER AND/OR OBSTRUCTIONS TO VISIBILITY. N/A MEANS
CURRENT SKY AND/OR WEATHER CONDITIONS ARE NOT AVAILABLE.

MNZ060>063-068>070-202000-
   Twin Cities Metro

CITY           SKY/WX    TMP DP  RH WIND       PRES   REMARKS
TWIN CITIES    FAIR      68  38  33 NE6       30.21F
ST PAUL        FAIR      66  37  34 N6        30.21F
CRYSTAL        FAIR      67  29  24 E10G17    30.20F
BLAINE         MOSUNNY   68  30  24 NE10G16   30.22F
LAKEVILLE      FAIR      64  45  48 E10       30.20F
EDEN PRAIRIE   FAIR      66  38  35 E5G18     30.19F
SOUTH ST PAUL  FAIR      66  35  32 NE5       30.21F
LAKE ELMO      FAIR      66  34  30 NE7       30.23F
$$
MNZ001>005-007-008-013>017-022>024-027-028-202000-
   Northwest Minnesota

CITY           SKY/WX    TMP DP  RH WIND       PRES   REMARKS
BEMIDJI        FAIR      66  33  28 E3        30.25S
HALLOCK        FAIR      73  27  17 CALM      30.19F
ROSEAU         FAIR      70  39  32 S6        30.21F
WARROAD        FAIR      70  39  32 SW7       30.21F
THIEF RVR FALL FAIR      68  31  25 S7        30.24F
CROOKSTON      FAIR      70  34  26 W10       30.24S
FOSSTON        FAIR      70  34  26 W7        30.25F
DETROIT LAKES  FAIR      66  32  28 E8        30.26F
MOORHEAD       FAIR      66  32  28 E5        30.24F
PARK RAPIDS    FAIR      67  33  28 MISG      30.24F
MAHNOMEN       FAIR      65  35  33 N3        30.26S
$$
MNZ006-009>011-018-025>026-202000-
   North Central Minnesota

CITY           SKY/WX    TMP DP  RH WIND       PRES   REMARKS
BAUDETTE       FAIR      70  30  22 W5        30.21F
FLAG ISLAND    FAIR      57  43  58 S20       30.18F
INTL FALLS     FAIR      71  32  23 SW8       30.21F
WASKISH        PTSUNNY   66  34  30 SW8       30.24F
BIG FORK       FAIR      70  34  26 CALM      30.23F
LONGVILLE      FAIR      68  34  28 S5        30.25F
GRAND RAPIDS   FAIR      64  32  30 CALM      30.28F
CRANE LAKE     FAIR      68  27  21 CALM      30.23F
ORR            FAIR      70  25  18 N5        30.21S
COOK           FAIR      66  34  30 CALM      30.24F
WALKER         FAIR      63  34  33 E6        30.26F
$$
MNZ012-019>021-037-202000-
   Northeast Minnesota

CITY           SKY/WX    TMP DP  RH WIND       PRES   REMARKS
DULUTH         FAIR      64  30  27 VRB6      30.26F
ELY            FAIR      66  27  22 W7        30.23F
HIBBING        FAIR      66  34  30 NE6       30.25F
EVELETH        FAIR      65  33  30 NE5       30.26F
DULUTH HARBOR  FAIR      55  41  58 CALM      30.28S
TWO HARBORS    FAIR      70  39  32 SE8       30.24F
SILVER BAY     FAIR      64  28  25 SE13      30.24S
GRAND MARAIS     N/A     47  35  63 SW14      30.26S
G MARAIS ARPRT FAIR      59  28  31 S9        30.24S
$$
MNZ029>031-032-039>041-046>048-054>057-064-202000-
   West Central Minnesota

CITY           SKY/WX    TMP DP  RH WIND       PRES   REMARKS
FERGUS FALLS   FAIR      66  34  30 E7        30.20F
WHEATON        SUNNY     66  23  19 NE8G16    30.24F
MORRIS         SUNNY     66  30  26 E10G18    30.22F
ALEXANDRIA     FAIR      68  35  29 VRB6      30.24F
ELBOW LAKE     FAIR      65  33  30 NE6       30.24F
WADENA         FAIR      66  34  30 E6        30.24F
GLENWOOD       FAIR      66  30  26 E12G18    30.23F
APPLETON       SUNNY     68  21  17 E10G18    30.20F
BENSON         CLOUDY    66  25  20 SE8G16    30.23F
ORTONVILLE     SUNNY     66  28  24 E12G20    30.21F
MADISON        SUNNY     70  25  18 E8G22     30.19F
WILLMAR        FAIR      66  28  24 NE12G20   30.23F
$$
MNZ033>034-036-042>043-049>051-058-059-202000-
   Central Minnesota

CITY           SKY/WX    TMP DP  RH WIND       PRES   REMARKS
ST CLOUD       FAIR      67  24  19 E9G22     30.23F
SAUK CENTRE    FAIR      65  31  28 E8        30.24S
PAYNESVILLE    FAIR      65  28  24 NE9       30.23F
AITKIN         FAIR      66  32  28 E7        30.24F
PINE RIVER     FAIR      64  36  34 NE3       30.28S
BRAINERD       FAIR      67  32  27 NE10G17   30.25F
STAPLES        FAIR      64  28  25 E3        30.25S
LONG PRAIRIE   FAIR      63  32  31 N7        30.24F
LITTLE FALLS   FAIR      64  32  29 CALM      30.23F
LITCHFIELD     FAIR      68  30  24 E10       30.21F
BUFFALO        FAIR      65  29  25 E6        30.24S
MAPLE LAKE     FAIR      68  35  29 E7        30.23F
HUTCHINSON     FAIR      68  36  30 E10G17    30.20F
$$
MNZ037-044-045-052-053-202000-
   East Central Minnesota

CITY           SKY/WX    TMP DP  RH WIND       PRES   REMARKS
PRINCETON      FAIR      68  27  21 NE9       30.24F
MORA           FAIR      64  32  29 E3        30.25F
CAMBRIDGE      FAIR      68  41  37 NE8       30.24F
RUSH CITY      FAIR      67  31  27 NE5       30.24F
MOOSE LAKE     FAIR      68  36  30 NE8       30.23F
HINCKLEY       FAIR      66  32  28 E8        30.24F
CLOQUET        FAIR      64  27  24 S3        30.25F
MCGREGOR       FAIR      66  32  28 S3        30.25F
$$
MNZ071>073-080-081-089-090-097-098-202000-
   Southwest Minnesota

CITY           SKY/WX    TMP DP  RH WIND       PRES   REMARKS
MONTEVIDEO     SUNNY     70  25  18 E12G18    30.19F
GRANITE FALLS  SUNNY     69  29  22 NE13G21   30.19F
CANBY          MOSUNNY   68  28  22 NE14G23   30.20F
MARSHALL       CLOUDY    67  33  28 NE14G20   30.17F
REDWOOD FALLS  SUNNY     69  41  36 E10       30.16F
OLIVIA         SUNNY     70  32  24 E10G17    30.18F
PIPESTONE      CLOUDY    59  39  47 E10       30.17F
WINDOM         MOSUNNY   61  37  41 NE10      30.17F
WORTHINGTON      N/A     55  43  63 E10       30.18F
JACKSON        CLOUDY    59  46  63 NE9G17    30.18F
TRACY          CLOUDY    65  47  50 E13       30.17F
SLAYTON        CLOUDY    58  42  55 E7        30.20F
$$
MNZ065>067-074>077-082>085-091>093-202000-
   South Central Minnesota

CITY           SKY/WX    TMP DP  RH WIND       PRES   REMARKS
MANKATO        FAIR      59  47  64 NE10      30.19F
NEW ULM        MOSUNNY   63  46  55 E12G18    30.18F
ST JAMES       CLOUDY    61  46  59 E10       30.19F
FAIRMONT       CLOUDY    61  48  62 NE13      30.18F
GLENCOE        FAIR      67  43  42 NE8       30.19F
FARIBAULT      CLOUDY    63  46  55 CALM      30.20F
OWATONNA       FAIR      61  48  63 E7        30.19F
WASECA         FAIR      59  46  63 NE8       30.20F
ALBERT LEA     CLOUDY    55  45  67 E10       30.20S
$$
MNZ078>079-086>088-094>096-202000-
   Southeast Minnesota

CITY           SKY/WX    TMP DP  RH WIND       PRES   REMARKS
ROCHESTER      CLOUDY    54  48  80 NE12      30.22S
RED WING       FAIR      64  37  36 S6        30.19F
STANTON        FAIR      65  46  50 NE10      30.18F
DODGE CENTER   PTSUNNY   55  45  67 NE9       30.20F
WINONA         CLOUDY    57  46  67 SE7       30.20F
AUSTIN         CLOUDY    54  48  82 E8        30.20S
PRESTON        CLOUDY    48  46  91 NE12      30.21S FOG
$$
ABBREVIATIONS USED IN REMARKS
   TC - TEMPERATURES IN CELSIUS
  WCI - WIND CHILL INDEX
   HX - HEAT INDEX
  VSB - VISIBILITY
$$




USA.gov is the U.S. government's official web portal to all federal, state and local government web resources and services.